Location: Białystok
(53.1343°N, 23.1544°E)
Time: 04:14:15
(UTC+01:00)

ISS - Pass Details

Date: 28 January 2019
Orbit: 403 x 411 km, 51.6° (Epoch: 17 February)

Event Time Altitude Azimuth Distance (km) Brightness Sun altitude
Rises 17:32:15 0° 238° (WSW) 2,329 1.5 -13.2°
Reaches altitude 10° 17:34:23 10° 231° (SW) 1,472 0.1 -13.6°
Maximum altitude 17:37:31 41° 160° (SSE) 606 -3.1 -14.0°
Enters shadow 17:38:54 26° 107° (ESE) 849 -2.7 -14.2°
